Ardmore Downtown, OK

4:30 AM CST on January 22, 2018 (GMT -0600)
Ardmore Downtown

Weather History for K1F0 - December, 2013

Change the Weather History Date:

Wednesday, December 4, 2013

  Actual Average (KADM) Record (KADM)
Temperature  
Mean Temperature 44 °F -  
Max Temperature 53 °F 56 °F 82 °F (2017)
Min Temperature 35 °F 37 °F 19 °F (2006)
Degree Days  
Heating Degree Days 21    
Moisture  
Dew Point 36 °F    
Average Humidity 72    
Maximum Humidity 100    
Minimum Humidity 47    
Precipitation  
Precipitation 0.00 in - - ()
Sea Level Pressure  
Sea Level Pressure 29.72 in    
Wind  
Wind Speed 3 mph (NNE)    
Max Wind Speed 17 mph    
Max Gust Speed 25 mph    
Visibility 10 miles    
Events      
Averages and records for this station are not official NWS values.
T = Trace of Precipitation, MM = Missing Value Source: NWS Daily Summary

Daily Weather History Graph

Daily Weather History Graph

Search for Another Location

Airport or City:

Trip Planner

Search our weather history database for the weather conditions in past years. The results will help you decide how hot, cold, wet, or windy it might be!

Date:

Astronomy

Dec. 04, 2013 Rise Set
Actual Time 7:18 AM CST 5:18 PM CST
Civil Twilight 6:51 AM CST 5:46 PM CST
Nautical Twilight 6:20 AM CST 6:17 PM CST
Astronomical Twilight 5:49 AM CST 6:47 PM CST
Moon 8:49 AM CST (12/4) 7:28 PM CST (12/4)
Length of Visible Light 10h 54m
Length of Day
9h 59m
Waxing Crescent, 4% of the Moon is Illuminated
Dec 4
Waxing Crescent
Dec 9
First Quarter
Dec 17
Full
Dec 25
Last Quarter
Jan 1
New

Hourly Weather History & Observations

Time (CST) Temp. Windchill Dew Point Humidity Pressure Visibility Wind Dir Wind Speed Gust Speed Precip Events Conditions
12:15 AM 42.8 °F - 41.0 °F 93% 29.55 in 10.0 mi Calm Calm - N/A   Clear
12:35 AM 44.6 °F - 42.8 °F 93% 29.55 in 10.0 mi Calm Calm - N/A   Clear
12:55 AM 41.0 °F - 41.0 °F 100% 29.54 in 7.0 mi Calm Calm - N/A   Clear
1:15 AM 42.8 °F - 41.0 °F 93% 29.53 in 10.0 mi Calm Calm - N/A   Clear
1:35 AM 42.8 °F - 42.8 °F 100% 29.54 in 10.0 mi Calm Calm - N/A   Clear
1:55 AM 42.8 °F - 41.0 °F 93% 29.54 in 7.0 mi Calm Calm - N/A   Clear
2:15 AM 44.6 °F - 42.8 °F 93% 29.54 in 10.0 mi Calm Calm - N/A   Clear
2:35 AM 42.8 °F - 41.0 °F 93% 29.54 in 10.0 mi Calm Calm - N/A   Clear
2:55 AM 42.8 °F - 41.0 °F 93% 29.55 in 10.0 mi Calm Calm - N/A   Clear
3:15 AM 42.8 °F - 37.4 °F 81% 29.55 in 10.0 mi Calm Calm - N/A   Clear
3:35 AM 42.8 °F - 41.0 °F 93% 29.55 in 10.0 mi Calm Calm - N/A   Clear
3:55 AM 41.0 °F - 37.4 °F 87% 29.56 in 10.0 mi Calm Calm - N/A   Clear
4:15 AM 37.4 °F - 37.4 °F 100% 29.57 in 10.0 mi Calm Calm - N/A   Clear
4:35 AM 39.2 °F - 37.4 °F 93% 29.56 in 10.0 mi Calm Calm - N/A   Clear
4:55 AM 39.2 °F 37.0 °F 37.4 °F 93% 29.58 in 10.0 mi NNE 3.5 mph - N/A   Clear
5:15 AM 37.4 °F - 37.4 °F 100% 29.58 in 10.0 mi Calm Calm - N/A   Clear
5:35 AM 37.4 °F - 35.6 °F 93% 29.58 in 10.0 mi Calm Calm - N/A   Clear
5:55 AM 35.6 °F - 35.6 °F 100% 29.58 in 10.0 mi Calm Calm - N/A   Clear
6:15 AM 37.4 °F - 35.6 °F 93% 29.60 in 10.0 mi Calm Calm - N/A   Clear
6:35 AM 35.6 °F - 35.6 °F 100% 29.61 in 10.0 mi Calm Calm - N/A   Clear
6:55 AM 35.6 °F - 35.6 °F 100% 29.63 in 10.0 mi Calm Calm - N/A   Clear
7:15 AM 35.6 °F - 35.6 °F 100% 29.64 in 10.0 mi Calm Calm - N/A   Clear
7:35 AM 41.0 °F - 35.6 °F 81% 29.64 in 10.0 mi Calm Calm - N/A   Clear
7:55 AM 41.0 °F - 39.2 °F 93% 29.65 in 10.0 mi Calm Calm - N/A   Clear
8:15 AM 41.0 °F - 37.4 °F 87% 29.66 in 10.0 mi Calm Calm - N/A   Clear
8:35 AM 51.8 °F - 37.4 °F 58% 29.67 in 10.0 mi NW 5.8 mph - N/A   Scattered Clouds
8:55 AM 51.8 °F - 35.6 °F 54% 29.68 in 7.0 mi North 8.1 mph 17.3 mph N/A   Clear
9:15 AM 50.0 °F - 35.6 °F 58% 29.70 in 10.0 mi North 4.6 mph - N/A   Clear
9:35 AM 50.0 °F - 37.4 °F 62% 29.72 in 10.0 mi North 9.2 mph - N/A   Clear
9:55 AM 50.0 °F - 39.2 °F 66% 29.73 in 10.0 mi North 6.9 mph - N/A   Clear
10:15 AM 50.0 °F - 41.0 °F 71% 29.73 in 10.0 mi North 5.8 mph - N/A   Clear
10:35 AM 50.0 °F - 41.0 °F 71% 29.74 in 10.0 mi North 5.8 mph - N/A   Clear
10:55 AM 51.8 °F - 41.0 °F 67% 29.74 in 10.0 mi NNW 4.6 mph - N/A   Clear
11:15 AM 51.8 °F - 39.2 °F 62% 29.74 in 10.0 mi North 5.8 mph - N/A   Clear
11:35 AM 53.6 °F - 41.0 °F 62% 29.74 in 10.0 mi NNE 8.1 mph - N/A   Clear
11:55 AM 53.6 °F - 39.2 °F 58% 29.75 in 10.0 mi North 4.6 mph - N/A   Clear
12:15 PM 53.6 °F - 39.2 °F 58% 29.73 in 7.0 mi North 5.8 mph - N/A   Clear
12:35 PM 53.6 °F - 39.2 °F 58% 29.72 in 7.0 mi North 4.6 mph - N/A   Clear
12:55 PM 53.6 °F - 39.2 °F 58% 29.73 in 7.0 mi North 5.8 mph - N/A   Clear
1:15 PM 53.6 °F - 39.2 °F 58% 29.74 in 7.0 mi NNE 6.9 mph - N/A   Clear
1:35 PM 53.6 °F - 37.4 °F 54% 29.73 in 7.0 mi NNW 5.8 mph - N/A   Clear
1:55 PM 53.6 °F - 37.4 °F 54% 29.73 in 7.0 mi NE 3.5 mph - N/A   Clear
2:15 PM 53.6 °F - 37.4 °F 54% 29.74 in 10.0 mi NNE 8.1 mph - N/A   Clear
2:35 PM 53.6 °F - 35.6 °F 51% 29.75 in 10.0 mi NNE 5.8 mph - N/A   Clear
2:55 PM 53.6 °F - 35.6 °F 51% 29.74 in 10.0 mi NNE 6.9 mph - N/A   Clear
3:15 PM 53.6 °F - 35.6 °F 51% 29.73 in 10.0 mi NNE 6.9 mph - N/A   Clear
3:35 PM 53.6 °F - 35.6 °F 51% 29.75 in 10.0 mi North 5.8 mph - N/A   Clear
3:55 PM 53.6 °F - 33.8 °F 47% 29.76 in 10.0 mi NNE 6.9 mph - N/A   Clear
4:15 PM 53.6 °F - 33.8 °F 47% 29.77 in 10.0 mi North 3.5 mph - N/A   Clear
4:35 PM 53.6 °F - 33.8 °F 47% 29.78 in 10.0 mi North 4.6 mph - N/A   Clear
4:55 PM 51.8 °F - 33.8 °F 50% 29.78 in 10.0 mi North 4.6 mph - N/A   Clear
5:15 PM 50.0 °F - 33.8 °F 54% 29.79 in 10.0 mi North 8.1 mph - N/A   Clear
5:35 PM 48.2 °F - 33.8 °F 58% 29.80 in 10.0 mi North 5.8 mph - N/A   Clear
5:55 PM 46.4 °F 41.9 °F 32.0 °F 57% 29.80 in 10.0 mi NNE 9.2 mph - N/A   Clear
6:15 PM 46.4 °F 42.9 °F 32.0 °F 57% 29.81 in 10.0 mi North 6.9 mph - N/A   Clear
6:35 PM 46.4 °F 42.4 °F 32.0 °F 57% 29.82 in 10.0 mi NNE 8.1 mph - N/A   Clear
6:55 PM 44.6 °F 40.7 °F 32.0 °F 61% 29.84 in 10.0 mi NNE 6.9 mph - N/A   Clear
7:15 PM 44.6 °F 39.7 °F 32.0 °F 61% 29.84 in 10.0 mi NE 9.2 mph - N/A   Clear
7:35 PM 42.8 °F 38.0 °F 32.0 °F 66% 29.85 in 10.0 mi NNE 8.1 mph 21.9 mph N/A   Clear
7:55 PM 42.8 °F 36.2 °F 32.0 °F 66% 29.86 in 10.0 mi NNE 12.7 mph 17.3 mph N/A   Clear
8:15 PM 41.0 °F 33.5 °F 32.0 °F 70% 29.86 in 10.0 mi NNE 13.8 mph 21.9 mph N/A   Clear
8:35 PM 41.0 °F 33.5 °F 32.0 °F 70% 29.87 in 10.0 mi NNE 13.8 mph 19.6 mph N/A   Clear
8:55 PM 41.0 °F 33.9 °F 32.0 °F 70% 29.88 in 10.0 mi NE 12.7 mph 17.3 mph N/A   Scattered Clouds
9:15 PM 39.2 °F 32.0 °F 30.2 °F 70% 29.90 in 10.0 mi NNE 11.5 mph 17.3 mph N/A   Mostly Cloudy
9:35 PM 39.2 °F 31.6 °F 30.2 °F 70% 29.92 in 10.0 mi NNE 12.7 mph 19.6 mph N/A   Overcast
9:55 PM 37.4 °F 30.3 °F 28.4 °F 70% 29.93 in 10.0 mi NNE 10.4 mph 21.9 mph N/A   Overcast
10:15 PM 37.4 °F 28.9 °F 28.4 °F 70% 29.94 in 10.0 mi NNE 13.8 mph 20.7 mph N/A   Overcast
10:35 PM 35.6 °F 25.5 °F 28.4 °F 75% 29.95 in 10.0 mi NNE 17.3 mph 23.0 mph N/A   Overcast
10:55 PM 35.6 °F 25.9 °F 26.6 °F 70% 29.95 in 10.0 mi NNE 16.1 mph 25.3 mph N/A   Overcast
11:15 PM 35.6 °F 26.6 °F 26.6 °F 70% 29.96 in 10.0 mi NNE 13.8 mph 23.0 mph N/A   Overcast
11:35 PM 35.6 °F 28.0 °F 26.6 °F 70% 29.97 in 10.0 mi North 10.4 mph 20.7 mph N/A   Overcast
11:55 PM 35.6 °F 28.0 °F 26.6 °F 70% 29.98 in 10.0 mi NNE 10.4 mph 19.6 mph N/A   Overcast